Weather History for KPIT - August, 2014

Change the Weather History Date:

Wednesday, August 13, 2014

  Actual Average Record
Temperature  
Mean Temperature 64 °F 72 °F  
Max Temperature 73 °F 82 °F 95 °F (1944)
Min Temperature 55 °F 62 °F 48 °F (1982)
Degree Days  
Heating Degree Days 1 0  
Month to date heating degree days 1 0  
Since 1 June heating degree days 21 42  
Since 1 July heating degree days 12 4  
Cooling Degree Days 0 7  
Month to date cooling degree days 66 95  
Year to date cooling degree days 513 538  
Since 1 June cooling degree days 439 486  
Growing Degree Days 16 (Base 50)    
Moisture  
Dew Point 58 °F    
Average Humidity 71    
Maximum Humidity 93    
Minimum Humidity 49    
Precipitation  
Precipitation 0.13 in 0.11 in 2.31 in (1896)
Month to date precipitation 2.06 1.53  
Year to date precipitation 26.39 24.76  
Snow  
Snow 0.00 in 0.00 in 0.00 in (2002)
Month to date snowfall 0.0 0.0  
Since 1 July snowfall 0.0 0.0  
Snow Depth 0.00 in    
Sea Level Pressure  
Sea Level Pressure 29.91 in    
Wind  
Wind Speed 9 mph (West)    
Max Wind Speed 20 mph    
Max Gust Speed 25 mph    
Visibility 9 miles    
Events Rain    
T = Trace of Precipitation, MM = Missing Value Source: NWS Daily Summary

Daily Weather History Graph

Daily Weather History Graph

Search for Another Location

Airport or City:

Trip Planner

Search our weather history database for the weather conditions in past years. The results will help you decide how hot, cold, wet, or windy it might be!

Date:

Astronomy

Aug. 13, 2014 Rise Set
Actual Time 6:29 AM EDT 8:21 PM EDT
Civil Twilight 6:00 AM EDT 8:50 PM EDT
Nautical Twilight 5:24 AM EDT 9:26 PM EDT
Astronomical Twilight 4:45 AM EDT 10:04 PM EDT
Moon 10:04 PM EDT (8/13) 9:56 AM EDT (8/13)
Length of Visible Light 14h 50m
Length of Day
13h 51m
Waning Gibbous, 88% of the Moon is Illuminated
Aug 13
Waning Gibbous
Aug 17
Last Quarter
Aug 25
New
Sep 2
First Quarter
Sep 8
Full

Hourly Weather History & Observations

Time (EDT) Temp. Dew Point Humidity Pressure Visibility Wind Dir Wind Speed Gust Speed Precip Events Conditions
12:51 AM 64.0 °F 61.0 °F 90% 29.84 in 10.0 mi WSW 8.1 mph - N/A   Partly Cloudy
1:51 AM 64.9 °F 62.1 °F 90% 29.85 in 10.0 mi WSW 6.9 mph - N/A   Overcast
2:51 AM 64.4 °F 62.6 °F 94% 29.84 in 10.0 mi WSW 4.6 mph - N/A   Overcast
3:33 AM 64.0 °F 61.0 °F 90% 29.84 in 10.0 mi WSW 6.9 mph - N/A   Mostly Cloudy
3:51 AM 64.0 °F 61.0 °F 90% 29.84 in 10.0 mi WSW 6.9 mph - N/A   Mostly Cloudy
4:51 AM 64.4 °F 60.8 °F 88% 29.84 in 10.0 mi West 5.8 mph - N/A   Overcast
5:27 AM 63.0 °F 60.1 °F 90% 29.84 in 10.0 mi West 6.9 mph - N/A   Mostly Cloudy
5:51 AM 63.0 °F 60.1 °F 90% 29.85 in 10.0 mi WSW 5.8 mph - N/A   Mostly Cloudy
6:04 AM 63.0 °F 60.1 °F 90% 29.85 in 10.0 mi WSW 8.1 mph - 0.00 in   Light Drizzle
6:18 AM 63.0 °F 60.1 °F 90% 29.85 in 3.0 mi WSW 6.9 mph - 0.00 in Rain Light Rain
6:40 AM 62.1 °F 61.0 °F 96% 29.86 in 3.0 mi WSW 5.8 mph - 0.01 in Rain Light Rain
6:51 AM 62.1 °F 61.0 °F 96% 29.86 in 7.0 mi WSW 5.8 mph - 0.01 in   Light Drizzle
7:34 AM 62.1 °F 61.0 °F 96% 29.87 in 3.0 mi WNW 9.2 mph - 0.01 in   Light Drizzle
7:51 AM 62.1 °F 61.0 °F 96% 29.89 in 2.0 mi NW 9.2 mph - 0.03 in Rain Light Rain
8:17 AM 62.6 °F 60.8 °F 94% 29.89 in 6.0 mi West 5.8 mph - N/A Rain Light Rain
8:28 AM 62.1 °F 61.0 °F 96% 29.89 in 7.0 mi WNW 10.4 mph - 0.09 in   Overcast
10:11 AM 64.0 °F 60.1 °F 87% 29.92 in 10.0 mi WNW 15.0 mph - N/A   Mostly Cloudy
10:51 AM 64.4 °F 60.8 °F 88% 29.93 in 10.0 mi WNW 15.0 mph 20.7 mph N/A   Mostly Cloudy
11:40 AM 66.0 °F 57.9 °F 75% 29.94 in 10.0 mi WNW 15.0 mph 23.0 mph N/A   Overcast
11:51 AM 66.0 °F 57.9 °F 75% 29.95 in 10.0 mi WNW 15.0 mph - N/A   Overcast
12:51 PM 63.0 °F 57.0 °F 81% 29.96 in 10.0 mi West 12.7 mph 19.6 mph 0.00 in   Light Drizzle
1:10 PM 64.0 °F 57.9 °F 80% 29.95 in 10.0 mi West 16.1 mph - 0.00 in   Light Drizzle
1:38 PM 64.0 °F 57.9 °F 80% 29.95 in 10.0 mi West 11.5 mph 17.3 mph 0.00 in   Overcast
1:51 PM 64.9 °F 57.9 °F 78% 29.95 in 10.0 mi West 11.5 mph 19.6 mph 0.00 in   Mostly Cloudy
2:51 PM 69.1 °F 57.0 °F 65% 29.94 in 10.0 mi WNW 11.5 mph - N/A   Mostly Cloudy
3:51 PM 72.0 °F 54.0 °F 53% 29.93 in 10.0 mi WNW 11.5 mph 24.2 mph N/A   Mostly Cloudy
4:51 PM 71.6 °F 53.6 °F 53% 29.93 in 10.0 mi West 12.7 mph 20.7 mph N/A   Scattered Clouds
5:51 PM 72.0 °F 51.1 °F 48% 29.94 in 10.0 mi West 13.8 mph - N/A   Scattered Clouds
6:51 PM 70.0 °F 50.0 °F 49% 29.96 in 10.0 mi WNW 15.0 mph - N/A   Scattered Clouds
7:51 PM 68.0 °F 51.1 °F 55% 29.97 in 10.0 mi NW 11.5 mph - N/A   Partly Cloudy
8:51 PM 64.9 °F 50.0 °F 58% 29.99 in 10.0 mi NNW 8.1 mph - N/A   Partly Cloudy
9:51 PM 62.1 °F 52.0 °F 70% 29.99 in 10.0 mi Calm Calm - N/A   Clear
10:51 PM 59.0 °F 52.0 °F 78% 29.99 in 10.0 mi Calm Calm - N/A   Clear